Other Public Products
Issued by NWS Grand Forks, ND

Home | Current Version | Previous Version | Graphics & Text | Print | Product List | Glossary On
Versions: 1 2 3 4 5 6 7 8 9 10 11 12 13 14 15 16 17 18 19 20 21 22 23 24 25 26 27 28 29 30 31 32 33 34 35 36 37 38 39 40 41 42 43 44 45 46 47 48 49 50
000
FPUS83 KFGF 100131
OPUFGF
PRAIRIE TO PINES WEATHER ROUNDUP
NATIONAL WEATHER SERVICE EASTERN NORTH DAKOTA/GRAND FORKS ND
700 PM CST TUE FEB 09 2016

 **SATELLITE DATA USED TO AUGMENT SKY COVER AT AUTOMATED STATIONS**
 *****  WEATHER ACROSS EASTERN NORTH DAKOTA  *****

CITY           SKY/WX    TMP DP  RH WIND       PRES   REMARKS
GRAND FORKS    CLOUDY     6   0  76 N7        30.27F WCI  -6
GRAND FORKS AF CLOUDY     7  -1  71 N8        30.26F WCI  -6
GRAND CITY NWS NOT AVBL
BUXTON           N/A    N/A N/A N/A N6          N/A
DEVILS LAKE    CLOUDY    11   5  77 E9        30.20F WCI  -2
FARGO          CLOUDY    12   4  70 N7        30.24F WCI   1
WAHPETON ARPT  CLOUDY    12   5  73 N7        30.24F WCI   2
$$

 *****  WEATHER ACROSS CENTRAL AND WESTERN NORTH DAKOTA  *****

CITY           SKY/WX    TMP DP  RH WIND       PRES   REMARKS
JAMESTOWN      CLOUDY    16   9  74 E12       30.17F WCI   3
BISMARCK       CLOUDY    36  20  52 E3        30.12F
MINOT          CLOUDY    26  16  65 E12       30.11F WCI  16
MINOT AFB      MIX PCPN  23  18  80 SE13      30.10F WCI  11
GARRISON         N/A     33  20  58 CALM      30.09F
WILLISTON      MOCLDY    33  23  66 SE6       30.06F
DICKINSON      CLOUDY    33  22  63 SE3       30.05F
HETTINGER      MOCLDY    31  19  61 E3        30.08F
$$

 *****  OTHER OBSERVATIONS NORTHEAST NORTH DAKOTA  *****

CITY           SKY/WX    TMP DP  RH WIND       PRES   REMARKS
WALHALLA       FAIR       5   1  85 NE5       30.29R WCI  -4
LANGDON        CLOUDY     7   1  78 NE7       30.20F WCI  -5
CAVALIER       FAIR       3   0  85 N6        30.29S WCI  -8
GRAFTON        FAIR       3   0  85 N9        30.30S WCI -11
CANDO          CLOUDY    10   7  85 E9        30.22F WCI  -2
FORT TOTTEN      N/A     11   5  75 E3        29.95S
ROLLA          CLOUDY     9   5  85 E10       30.18R WCI  -6
RUGBY          FAIR      14   9  79 E15       30.16F WCI  -1
 ***** THE ABOVE OBSERVATIONS ARE NON NWS ARE NOT QUALITY
        CONTROLLED AND MAY MIS-REPORT RAIN FOR SNOW...
$$

 *****  OTHER OBSERVATIONS SOUTHEAST NORTH DAKOTA *****

CITY           SKY/WX    TMP DP  RH WIND       PRES   REMARKS
COOPERSTOWN    NOT AVBL
VALLEY CITY    CLOUDY    12   9  85 NE8       30.21F WCI   1
OAKES          FAIR      16  10  79 E9        30.19F WCI   4
GWINNER        CLOUDY    18  12  79 NE7       30.21F WCI   8
SHEYENNE NWR     N/A     12   4  71 NE6       29.95S WCI   3
BUFFALO          N/A     11   4  72 NE6         N/A  WCI   2
WYNDMERE         N/A     12   7  79 N3          N/A
 ***** THE ABOVE OBSERVATIONS ARE NON NWS ARE NOT QUALITY
       CONTROLLED AND MAY MIS-REPORT RAIN FOR SNOW...
$$

  *****  WEATHER ACROSS NORTHERN MINNESOTA  *****

CITY           SKY/WX    TMP DP  RH WIND       PRES   REMARKS
FLAG ISLAND    CLOUDY    -2  -9  71 NW5       30.21S WCI -12
WARROAD        CLOUDY     1  -8  66 NW6       30.22S WCI -10
ROSEAU         CLOUDY     0  -8  71 W6        30.22F WCI -12
HALLOCK        CLOUDY     1  -4  78 N7        30.27F WCI -11
THF RVR FALLS  CLOUDY     1  -4  78 NW8       30.22F WCI -12
HALSTAD          N/A      6   3  86 N10         N/A  WCI  -8
FOSSTON          N/A     -6 -11  77 CALM      30.20F
BAUDETTE       CLOUDY    -2 -10  69 NW6       30.18F WCI -14
WASKISH        CLOUDY     0  -6  78 NW3       30.18F
CROOKSTON      CLOUDY     1  -2  85 N8        30.26F WCI -12
$$
  *****  WEATHER ACROSS CENTRAL AND WEST MINNESOTA  *****

CITY           SKY/WX    TMP DP  RH WIND       PRES   REMARKS
BEMIDJI        CLOUDY    -3  -8  82 NW5       30.16F WCI -14
PARK RAPIDS    CLOUDY     3  -6  66 NW8       30.16R WCI -10
WADENA         CLOUDY     3  -2  78 NW8       30.16F WCI -10
DETROIT LAKES  CLOUDY     3   1  92 NW3       30.19F
MOORHEAD       MOCLDY     9   3  78 N8        30.24F WCI  -4
FERGUS FALLS   CLOUDY     9   1  72 N6        30.24F WCI  -1
ELBOW LAKE     CLOUDY    11   4  73 NW9       30.20F WCI  -2
MORRIS MN      CLOUDY    12   7  79 NW10      30.20F WCI  -1
STAPLES        CLEAR      3  -2  78 NW7       30.16S WCI  -9
WHEATON        CLOUDY    12   9  85 N7        30.24F WCI   2
$$
  *****  WEATHER ELSEWHERE ACROSS MINNESOTA  *****

CITY           SKY/WX    TMP DP  RH WIND       PRES   REMARKS
DULUTH         PTCLDY     4  -6  63 NW13      30.05S WCI -13
INTRNTL FALLS  CLOUDY    -3  -9  75 NW6       30.16R WCI -15
ELY            CLOUDY     0  -6  78 NW5       30.08S WCI -10
CLOQUET        CLEAR      5  -8  56 NW10      30.08R WCI -10
BRAINERD       CLEAR      7  -5  57 N9        30.15S WCI  -7
HIBBING        CLEAR      2  -7  66 N12       30.10R WCI -15
ALEXANDRIA     CLEAR      8  -1  66 NW9       30.17S WCI  -5
SAINT CLOUD    CLEAR     11  -2  56 NW7       30.15S WCI   0
MINNEAPOLIS    CLEAR     13  -2  51 NW13      30.15R WCI  -2
$$

  *****  WEATHER ACROSS SOUTH DAKOTA  *****

CITY           SKY/WX    TMP DP  RH WIND       PRES   REMARKS
SIOUX FALLS    CLOUDY    22  13  68 NW3       30.20F
BROOKINGS      CLOUDY    19  13  77 N5        30.18R WCI  12
WATERTOWN      CLOUDY    20  11  68 NE6       30.17R WCI  12
HURON          MOCLDY    26  16  65 SE6       30.19S WCI  19
SISSETON         N/A     16   9  74 NE9       30.21F WCI   4
ABERDEEN       MOCLDY    26  14  60 E7        30.18S WCI  18
MITCHELL       MOCLDY    28  18  66 SE3       30.21F
PIERRE         CLOUDY    32  22  66 SE5       30.13S
MOBRIDGE       CLOUDY    35  20  54 E5        30.10F
RAPID CITY     CLEAR     38  27  64 SE5       30.10S
$$

  *****  SOME WEATHER IN NEARBY STATES *****

CITY           SKY/WX    TMP DP  RH WIND       PRES   REMARKS
GLASGOW MT     PTCLDY    42  33  70 NW3       30.04F
GREAT FALLS MT CLEAR     49  24  37 SW13      30.13S
CHEYENNE WY    CLEAR     43  21  41 W17       30.26S
SCOTTSBLUFF NE CLEAR     41  30  65 W10       30.20R
OMAHA NE       CLOUDY    22  14  71 NW5       30.26F WCI  16
DES MOINES IA  PTCLDY    17   7  64 NW14      30.18R WCI   3
DAVENPORT IA   CLEAR     13   3  64 NW21G28   30.06R WCI  -5
CHICAGO IL     FLURRIES  15   8  73 NW15      29.93S WCI   0
EAU CLAIRE WI  CLEAR     10  -5  50 NW7       30.05S WCI  -1
LA CROSSE WI   CLEAR      8  -3  61 N7        30.07R WCI  -3
$$

  *****  SOME NATIONAL WEATHER *****

CITY           SKY/WX    TMP DP  RH WIND       PRES   REMARKS
LA GUARDIA NY  CLOUDY    34  23  64 NE6       29.62R
RALEIGH NC     CLOUDY    36  14  40 W14G22    29.78R
ATLANTA GA     MOCLDY    31  18  58 NW13      29.98R WCI  21
NEW ORLEANS LA CLEAR     50  25  37 NW8       30.14R
OKLAHOMA CITY  MOCLDY    42  20  41 N8        30.29S
ALBUQUERQUE NM CLEAR     57  19  22 CALM      30.33R
SALT LAKE CITY PTCLDY    35  28  75 NW6       30.50S HAZE
LOS ANGELES CA PTCLDY    73  40  30 W9        30.07S
BOISE ID       CLEAR     42  33  70 SW7       30.44F
SEATTLE WA     MOCLDY    55  43  63 S7        30.13S
$$

*** WEATHER ACROSS MANITOBA...SASKATCHEWAN AND ONTARIO ***
                ***ONTARIO***

CITY           SKY/WX    TMP DP  RH WIND       PRES   REMARKS
GERALDTON      FLURRIES  -4  -9  77 NW12G21   29.99R WCI -22
THUNDER BAY    FLURRIES   3  -6  66 N7        30.10R WCI  -9
SIOUX LOOKOUT  FLURRIES  -4 -11  71 N7        30.15R WCI -18
TORONTO        CLOUDY    30  23  74 SW12      29.50F WCI  21
BIG TROUT LK   CLEAR    -17 -22  76 NW6       30.22S WCI -31
PICKLE LAKE    CRYSTALS -13 -22  64 NW6       30.13S WCI -27
DRYDEN         PTCLDY    -4  -9  77 N7        30.14S WCI -18
KENORA         PTCLDY    -2  -8  78 N7        30.17F WCI -16
$$
                *** MANITOBA***

CITY           SKY/WX    TMP DP  RH WIND       PRES   REMARKS
BRANDON        CLOUDY     9   3  78 E12       30.23S WCI  -6
DAUPHIN        PTCLDY     5   0  78 E9        30.26F WCI  -9
ISLAND LAKE    CLEAR    -18 -22  83 CALM      30.31F
PILOT MOUND      N/A      5   0  78 NE7         N/A  WCI  -7
THE PAS        CLOUDY    -6 -13  71 E7        30.25F WCI -20
THOMPSON       PTCLDY   -20 -26  76 CALM      30.31F
WINNIPEG       PTCLDY    -6 -11  77 N6        30.31R WCI -18
LYNN LAKE      FLURRIES  -8 -13  77 SE7       30.19F WCI -22
CHURCHILL      CRYSTALS -26 -31  75 NW8       30.38S WCI -45
GILLAM         CLEAR    -18 -26  69 W6        30.33F WCI -33
$$
                ***SASKATCHEWAN***

CITY           SKY/WX    TMP DP  RH WIND       PRES   REMARKS
ESTEVAN        MOCLDY    30  23  74 E7        30.07F WCI  23
KINDERSLEY     PTCLDY    36  30  80 SW7       29.94F
LLOYDMINSTER   MOCLDY    37  30  75 W13       29.88F
PRINCE ALBERT  LGT SNOW  16  12  86 E8        30.02F DRFTSNOWWCI   5
REGINA         MOCLDY    28  25  86 SE13      30.00F WCI  18
YORKTON        LGT SNOW  12  10  92 SE14      30.11F WCC1F1C2F2C3F3C4F4C5F5C6F6C7F7C8F8C9F9CaFaCbFbCcFcCdFdCe!


USA.gov is the U.S. government's official web portal to all federal, state and local government web resources and services.